Location: Walton
(43.6794°N, 81.3017°W)
Time: 07:20:35
(UTC+00:00)

NOSS 2-1 (D) - Pass Details

Date: 09 December 2025
Orbit: 374 x 1678 km, 63.3° (Epoch: 13 January)

Event Time Altitude Azimuth Distance (km) Brightness Sun altitude
Exits shadow 11:17:13 26° 265° (W) 1,149 4.4 -15.6°
Maximum altitude 11:18:15 30° 238° (WSW) 1,111 4.5 -15.5°
Drops below altitude 10° 11:22:37 10° 178° (S) 2,284 6.7 -14.7°
Sets 11:25:42 0° 169° (S) 3,456 7.8 -14.2°
